Location: ??????????
(42.1626°N, 44.1160°E)
Time: 11:07:27
(UTC+00:00)

Cosmos 2278 Rocket - Pass Details

Date: 03 March 2021
Orbit: 842 x 845 km, 71.0° (Epoch: 20 April)

Event Time Altitude Azimuth Distance (km) Brightness Sun altitude
Rises 18:43:59 0° 329° (NNW) 3,411 6.1 -41.1°
Reaches altitude 10° 18:46:32 10° 323° (NW) 2,471 5.2 -41.5°
Enters shadow 18:48:20 20° 314° (NW) 1,865 4.5 -41.8°
